sat.trackr.live / text

‹ back to catalog

STARLINK-34189

NORAD 64121 · 2025-110AB

PAYLOAD ACTIVE UNKNOWN

§ Identity

Operator
Country
US
Launch date
2025-05-23
Launch site
AFWTR
Launch vehicle
Mass (kg)
RCS (m²)

Purposes: comms

External: N2YO · Heavens-Above · Gunter

§ Orbital elements

Epoch: 2026-05-25T00:16:36.172992Z

Period
94.10 min
Inclination
53.1620°
Eccentricity
0.0001206
Mean motion
15.30218901 rev/d
Perigee alt
474.3 km
Apogee alt
476.0 km
Semi-major
6,853.3 km
B*
9.8636e-4
RAAN
32.5377°
Arg perigee
94.1591°
Mean anomaly
265.9547°
Rev number
5,756

§ Raw data

STARLINK-341891 64121U 25110AB  26145.01152978  .00028985  00000+0  98636-3 0  99902 64121  53.1620  32.5377 0001206  94.1591 265.9547 15.30218901 57569

JSON: /api/v1/satellites/64121 · /tle

For live sub-satellite position, see the globe view (requires WebGL).

§ Visibility from observer

Set your observer location to see the next 7 days of passes ≥ 10°. The values pass through the URL so the page stays shareable.

No JS? Fill the form by hand. The geolocation button needs JavaScript.